Overview Statistics Trail Chart Weather Telemetry Raw packets
 

This is the latest recevied weather packets stored in our database for station/object N1YZ. If no packets are shown the sender has not sent any weather packets the latest 10 day(s).

<< 74 75 76 77 78 79 80 >>
Time Temp. Humidity Pressure Rain* Wind** Luminosity Snow
1788118352 31.11° C 69% 1038.4 hPa 0 mm - 95 W/m² -
1788118048 31.67° C 65% 1038.4 hPa 0 mm - 171 W/m² -
1788117743 31.11° C 70% 1038.3 hPa 0 mm - 110 W/m² -
1788117439 31.11° C 68% 1038.2 hPa 0 mm - 140 W/m² -
1788117138 31.11° C 68% 1038 hPa 0 mm - 106 W/m² -
1788116834 31.67° C 64% 1038.4 hPa 0 mm - 89 W/m² -
1788116529 32.22° C 66% 1038.2 hPa 0 mm - 120 W/m² -
1788116227 32.22° C 65% 1038.4 hPa 0 mm - 719 W/m² -
1788115923 32.22° C 65% 1038.4 hPa 0 mm - 350 W/m² -
1788115622 32.78° C 64% 1038.6 hPa 0 mm - 182 W/m² -
1788115316 32.78° C 66% 1038.4 hPa 0 mm - 112 W/m² -
1788115011 32.78° C 64% 1038.6 hPa 0 mm - 726 W/m² -
1788114706 32.78° C 64% 1038.7 hPa 0 mm - 726 W/m² -
1788114401 31.67° C 67% 1038.9 hPa 0 mm - 704 W/m² -
1788114098 31.11° C 70% 1038.8 hPa 0 mm - 598 W/m² -
1788113794 31.11° C 69% 1039.2 hPa 0 mm - 104 W/m² -
1788113493 31.11° C 68% 1038.9 hPa 0 mm - 331 W/m² -
1788113192 31.11° C 70% 1039.2 hPa 0 mm - 726 W/m² -
1788112887 31.67° C 68% 1039.5 hPa 0 mm - 752 W/m² -
1788112586 30.56° C 70% 1039.2 hPa 0 mm - 181 W/m² -
1788112281 30.56° C 72% 1039.3 hPa 0 mm - 143 W/m² -
1788111977 30° C 72% 1039.3 hPa 0 mm - 164 W/m² -
1788111672 30° C 72% 1039.4 hPa 0 mm - 370 W/m² -
1788111367 30° C 72% 1039.5 hPa 0 mm - 703 W/m² -
1788111062 30° C 69% 1039.5 hPa 0 mm - 448 W/m² -

* Rain latest hour (hover to see other rain measurements)
** Current wind speed in m/s (hover to see current wind gust speed)